Location: Winthrop
(48.4780°N, 120.1850°W)
Time: 02:08:28
(UTC-08:00)

ISS - Visible Passes

Search period start: 10 December 2022 00:00
Search period end: 20 December 2022 00:00
Orbit: 414 x 420 km, 51.6° (Epoch: 09 December)

Date Brightness Start Highest point End Pass type
(mag) Time Alt. Az. Time Alt. Az. Time Alt. Az.
15 Dec -0.2 06:57:18 10° SSE 06:58:45 12° SE 07:00:14 10° ESE visible
17 Dec -1.4 06:55:29 10° SSW 06:58:23 27° SE 07:01:18 10° E visible
18 Dec -0.8 06:07:46 10° S 06:10:08 18° SE 06:12:31 10° E visible
19 Dec -0.6 05:20:42 10° SSE 05:21:56 12° SE 05:23:10 10° ESE visible
19 Dec -3.1 06:54:48 10° SW 06:58:06 58° SSE 07:01:25 10° ENE visible
